Weather in Belyaevka

Ukraine / Odesa District     46°28′21″N   30°13′31″E
temp.,
°C
wind,
m/s
gust,
m/s
humid.,
%
clouds,
%
prec.,
mm/h
press.,
hPa
HPBL,
m
15 may, sat
sat1500:00+14ssw497775 0.0 1010198
03:00+12sw37870 0.0 1010120
06:00+12wsw23805 0.0 101142
09:00+18ssw33593 0.0 1012464
12:00+22sw34455 0.0 10121503
15:00+24ssw463896 0.0 10112476
18:00+19sse586396 0.0 1012291
21:00+15sse34773 0.0 101255
16 may, sun
sun1600:00+13sse228295 0.0 101212
03:00+13ese22786 0.0 101219
06:00+13e2280100 0.0 101225
09:00+18e345849 0.0 1012461
12:00+23ese5545100 0.0 10111252
15:00+22se4449100 0.0 1010917
18:00+18nw2270100 0.2 100961
21:00+17nnw4566100 0.2 100776
17 may, mon
mon1700:00+16nnw475978 0.0 100698
03:00+17nnw51161100 0.0 1004288
06:00+14nw3694100 2.5 1004197
09:00+15wnw2696100 8.9 1004241
12:00+16wnw61090100 2.8 1005473
15:00+17nnw4786100 4.8 1005408
18:00+19n3371100 0.2 1004440
21:00+15sse35934 0.3 100590
18 may, tue
tue1800:00+14s35915 0.0 100574
03:00+14ssw338427 0.3 100435
06:00+14sw3586100 0.0 100499
09:00+19wsw4566100 0.0 1005484
12:00+22w45555 0.0 10051003
15:00+21w7951100 0.1 10061497
18:00+19wnw676334 0.9 10071251
21:00+14nw47745 1.0 1009119
19 may, wed
wed1900:00+13wnw368031 0.0 1010115
03:00+11wnw378926 0.0 1011164
06:00+12nw388485 0.0 1012258
09:00+15nw56705 0.0 1013549
12:00+19nw454821 0.0 10131940
15:00+19nnw234498 0.0 10121646
18:00+18n3557100 0.0 1012465
21:00+15s1169100 0.0 101315